"read_dt","SO2 (ppb)","flags","PMT voltage (V)","lamp voltage (V)","lamp intensity (Hz)","internal temp (C)","react chamber temp (C)","sample flow (l/min)","pres (mmHg)","SO2 bkg (ppb)","SO2 coefficient"
2015-05-08 00:00:00,1734E-3,5C000000,-0724,0832,12018,025.5,045.4,0.481,741.3,01.18,0.508
2015-05-08 00:01:00,1746E-3,5C000000,-0724,0833,12170,025.5,045.4,0.481,741.3,01.18,0.508
2015-05-08 00:02:00,1747E-3,5C000000,-0724,0832,12235,025.5,045.4,0.481,741.3,01.18,0.508
2015-05-08 00:03:00,1775E-3,5C000000,-0724,0833,12266,025.5,045.4,0.481,741.3,01.18,0.508
2015-05-08 00:04:00,1672E-3,5C000000,-0724,0832,12210,025.5,045.4,0.481,741.3,01.18,0.508
2015-05-08 00:05:00,1695E-3,5C000000,-0724,0832,12200,025.5,045.4,0.480,741.3,01.18,0.508
2015-05-08 00:06:00,1759E-3,5C000000,-0724,0832,12192,025.5,045.4,0.480,741.3,01.18,0.508
2015-05-08 00:07:00,1744E-3,5C000000,-0724,0833,12131,025.5,045.4,0.480,741.3,01.18,0.508
2015-05-08 00:08:00,1659E-3,5C000000,-0724,0833,12294,025.5,045.4,0.480,741.3,01.18,0.508
2015-05-08 00:09:00,1679E-3,5C000000,-0724,0833,12044,025.6,045.4,0.481,741.3,01.18,0.508
2015-05-08 00:10:00,1893E-3,5C000000,-0724,0833,12255,025.6,045.4,0.481,741.4,01.18,0.508
2015-05-08 00:11:00,1709E-3,5C000000,-0724,0833,12042,025.5,045.4,0.481,741.3,01.18,0.508
2015-05-08 00:12:00,1747E-3,5C000000,-0724,0833,12290,025.5,045.4,0.481,741.4,01.18,0.508
2015-05-08 00:13:00,1697E-3,5C000000,-0724,0833,12170,025.5,045.4,0.480,741.4,01.18,0.508
2015-05-08 00:14:00,1747E-3,5C000000,-0724,0832,12037,025.6,045.4,0.480,741.4,01.18,0.508
2015-05-08 00:15:00,1725E-3,5C000000,-0724,0832,12174,025.6,045.4,0.480,741.4,01.18,0.508
2015-05-08 00:16:00,1807E-3,5C000000,-0724,0833,12122,025.5,045.4,0.480,741.4,01.18,0.508
2015-05-08 00:17:00,1705E-3,5C000000,-0724,0833,12153,025.5,045.4,0.481,741.4,01.18,0.508
2015-05-08 00:18:00,1795E-3,5C000000,-0724,0833,12171,025.5,045.4,0.481,741.3,01.18,0.508
2015-05-08 00:19:00,1683E-3,5C000000,-0724,0833,12158,025.5,045.4,0.481,741.3,01.18,0.508
2015-05-08 00:20:00,1728E-3,5C000000,-0724,0833,12260,025.5,045.4,0.481,741.3,01.18,0.508
2015-05-08 00:21:00,1735E-3,5C000000,-0724,0832,12186,025.5,045.4,0.480,741.4,01.18,0.508
2015-05-08 00:22:00,1802E-3,5C000000,-0724,0833,12354,025.5,045.4,0.480,741.4,01.18,0.508
2015-05-08 00:23:00,1744E-3,5C000000,-0724,0832,11997,025.5,045.4,0.480,741.4,01.18,0.508
2015-05-08 00:24:00,1750E-3,5C000000,-0724,0833,12030,025.6,045.4,0.480,741.4,01.18,0.508
2015-05-08 00:25:00,1666E-3,5C000000,-0724,0832,12170,025.5,045.4,0.481,741.4,01.18,0.508
2015-05-08 00:26:00,1720E-3,5C000000,-0724,0833,12210,025.5,045.4,0.481,741.3,01.18,0.508
2015-05-08 00:27:00,1795E-3,5C000000,-0724,0833,12164,025.5,045.4,0.481,741.3,01.18,0.508
2015-05-08 00:28:00,1967E-3,5C000000,-0724,0833,12230,025.5,045.4,0.481,741.3,01.18,0.508
2015-05-08 00:29:00,1835E-3,5C000000,-0724,0833,12125,025.5,045.4,0.481,741.3,01.18,0.508
2015-05-08 00:30:00,1600E-3,5C000000,-0724,0832,12302,025.6,045.4,0.480,741.3,01.18,0.508
2015-05-08 00:31:00,1758E-3,5C000000,-0724,0833,12116,025.5,045.4,0.480,741.3,01.18,0.508
2015-05-08 00:32:00,1872E-3,5C000000,-0724,0833,12195,025.5,045.4,0.480,741.3,01.18,0.508
2015-05-08 00:33:00,1755E-3,5C000000,-0724,0832,12070,025.6,045.4,0.480,741.3,01.18,0.508
2015-05-08 00:34:00,1760E-3,5C000000,-0724,0833,12183,025.6,045.4,0.481,741.4,01.18,0.508
2015-05-08 00:35:00,1785E-3,5C000000,-0724,0833,12259,025.5,045.4,0.481,741.4,01.18,0.508
2015-05-08 00:36:00,1771E-3,5C000000,-0724,0833,12111,025.5,045.4,0.481,741.4,01.18,0.508
2015-05-08 00:37:00,1810E-3,5C000000,-0724,0832,12041,025.5,045.4,0.481,741.4,01.18,0.508
2015-05-08 00:38:00,1852E-3,5C000000,-0724,0833,12066,025.5,045.4,0.480,741.4,01.18,0.508
2015-05-08 00:39:00,1685E-3,5C000000,-0724,0833,12210,025.6,045.4,0.480,741.4,01.18,0.508
2015-05-08 00:40:00,1625E-3,5C000000,-0724,0832,12131,025.6,045.4,0.480,741.5,01.18,0.508
2015-05-08 00:41:00,1689E-3,5C000000,-0724,0831,12175,025.6,045.4,0.480,741.4,01.18,0.508
2015-05-08 00:42:00,1591E-3,5C000000,-0724,0833,12100,025.5,045.4,0.481,741.4,01.18,0.508
2015-05-08 00:43:00,1823E-3,5C000000,-0724,0832,12139,025.5,045.4,0.481,741.5,01.18,0.508
2015-05-08 00:44:00,1759E-3,5C000000,-0724,0833,12283,025.5,045.4,0.481,741.4,01.18,0.508
2015-05-08 00:45:00,1702E-3,5C000000,-0724,0833,12186,025.5,045.4,0.481,741.4,01.18,0.508
2015-05-08 00:46:00,1894E-3,5C000000,-0724,0833,12162,025.5,045.4,0.480,741.5,01.18,0.508
2015-05-08 00:47:00,1757E-3,5C000000,-0724,0833,12167,025.6,045.4,0.480,741.5,01.18,0.508
2015-05-08 00:48:00,1823E-3,5C000000,-0724,0833,12260,025.5,045.4,0.480,741.5,01.18,0.508
2015-05-08 00:49:00,1665E-3,5C000000,-0724,0833,12067,025.5,045.4,0.480,741.5,01.18,0.508
2015-05-08 00:50:00,1824E-3,5C000000,-0724,0832,12163,025.5,045.4,0.481,741.5,01.18,0.508
2015-05-08 00:51:00,1769E-3,5C000000,-0724,0833,12232,025.5,045.4,0.481,741.5,01.18,0.508
2015-05-08 00:52:00,1832E-3,5C000000,-0724,0833,12212,025.5,045.4,0.481,741.5,01.18,0.508
2015-05-08 00:53:00,1784E-3,5C000000,-0724,0832,12218,025.5,045.4,0.481,741.5,01.18,0.508
2015-05-08 00:54:00,1709E-3,5C000000,-0724,0833,12294,025.6,045.4,0.481,741.5,01.18,0.508
2015-05-08 00:55:00,1709E-3,5C000000,-0724,0832,12263,025.6,045.4,0.480,741.6,01.18,0.508
2015-05-08 00:56:00,1703E-3,5C000000,-0724,0832,12107,025.6,045.4,0.480,741.6,01.18,0.508
2015-05-08 00:57:00,1766E-3,5C000000,-0724,0832,12000,025.6,045.4,0.481,741.7,01.18,0.508
2015-05-08 00:58:00,1691E-3,5C000000,-0724,0833,12221,025.5,045.4,0.481,741.7,01.18,0.508
2015-05-08 00:59:00,1691E-3,5C000000,-0724,0831,12092,025.6,045.4,0.481,741.8,01.18,0.508
2015-05-08 01:00:00,1773E-3,5C000000,-0724,0833,12214,025.6,045.4,0.481,741.8,01.18,0.508
2015-05-08 01:01:00,1828E-3,5C000000,-0724,0833,12243,025.6,045.4,0.481,741.8,01.18,0.508
2015-05-08 01:02:00,1721E-3,5C000000,-0724,0833,12239,025.6,045.4,0.481,741.7,01.18,0.508
2015-05-08 01:03:00,1827E-3,5C000000,-0724,0833,12176,025.6,045.4,0.481,741.7,01.18,0.508
2015-05-08 01:04:00,1750E-3,5C000000,-0724,0832,12262,025.6,045.4,0.480,741.7,01.18,0.508
2015-05-08 01:05:00,1824E-3,5C000000,-0724,0832,12174,025.6,045.4,0.480,741.7,01.18,0.508
2015-05-08 01:06:00,1699E-3,5C000000,-0724,0833,12232,025.6,045.4,0.480,741.7,01.18,0.508
2015-05-08 01:07:00,1862E-3,5C000000,-0724,0833,12123,025.6,045.4,0.481,741.7,01.18,0.508
2015-05-08 01:08:00,1760E-3,5C000000,-0724,0833,12184,025.6,045.4,0.481,741.6,01.18,0.508
2015-05-08 01:09:00,1759E-3,5C000000,-0724,0833,12140,025.6,045.4,0.481,741.7,01.18,0.508
2015-05-08 01:10:00,1748E-3,5C000000,-0724,0832,12124,025.6,045.4,0.481,741.7,01.18,0.508
2015-05-08 01:11:00,1806E-3,5C000000,-0724,0832,12106,025.6,045.4,0.481,741.7,01.18,0.508
2015-05-08 01:12:00,1746E-3,5C000000,-0724,0833,12093,025.5,045.4,0.481,741.7,01.18,0.508
2015-05-08 01:13:00,1709E-3,5C000000,-0724,0833,12089,025.6,045.4,0.480,741.7,01.18,0.508
2015-05-08 01:14:00,1833E-3,5C000000,-0724,0833,12283,025.6,045.4,0.480,741.6,01.18,0.508
2015-05-08 01:15:00,1768E-3,5C000000,-0724,0833,12116,025.6,045.4,0.480,741.6,01.18,0.508
2015-05-08 01:16:00,1747E-3,5C000000,-0724,0833,12150,025.6,045.4,0.481,741.6,01.18,0.508
2015-05-08 01:17:00,1613E-3,5C000000,-0724,0833,11974,025.6,045.4,0.481,741.6,01.18,0.508
2015-05-08 01:18:00,1689E-3,5C000000,-0724,0832,12067,025.6,045.4,0.481,741.7,01.18,0.508
2015-05-08 01:19:00,1697E-3,5C000000,-0724,0833,12239,025.6,045.4,0.481,741.7,01.18,0.508
2015-05-08 01:20:00,1708E-3,5C000000,-0724,0833,12066,025.5,045.4,0.481,741.7,01.18,0.508
2015-05-08 01:21:00,1644E-3,5C000000,-0724,0832,12087,025.6,045.4,0.481,741.6,01.18,0.508
2015-05-08 01:22:00,1739E-3,5C000000,-0724,0833,12198,025.6,045.4,0.481,741.6,01.18,0.508
2015-05-08 01:23:00,1842E-3,5C000000,-0724,0833,12034,025.6,045.4,0.480,741.6,01.18,0.508
2015-05-08 01:24:00,1777E-3,5C000000,-0724,0833,12244,025.6,045.4,0.480,741.6,01.18,0.508
2015-05-08 01:25:00,1749E-3,5C000000,-0724,0833,12115,025.6,045.4,0.480,741.6,01.18,0.508
2015-05-08 01:26:00,1665E-3,5C000000,-0724,0833,12247,025.6,045.4,0.480,741.6,01.18,0.508
2015-05-08 01:27:00,1607E-3,5C000000,-0724,0832,12038,025.6,045.4,0.481,741.5,01.18,0.508
2015-05-08 01:28:00,1759E-3,5C000000,-0724,0833,12085,025.6,045.4,0.481,741.5,01.18,0.508
2015-05-08 01:29:00,1665E-3,5C000000,-0724,0833,12273,025.6,045.4,0.481,741.5,01.18,0.508
2015-05-08 01:30:00,1756E-3,5C000000,-0724,0833,12099,025.6,045.4,0.481,741.5,01.18,0.508
2015-05-08 01:31:00,1823E-3,5C000000,-0724,0833,12166,025.6,045.4,0.481,741.5,01.18,0.508
2015-05-08 01:32:00,1687E-3,5C000000,-0724,0832,12183,025.6,045.4,0.480,741.6,01.18,0.508
2015-05-08 01:33:00,1685E-3,5C000000,-0724,0832,12277,025.6,045.4,0.481,741.6,01.18,0.508
2015-05-08 01:34:00,1843E-3,5C000000,-0724,0833,12172,025.6,045.4,0.480,741.7,01.18,0.508
2015-05-08 01:35:00,1773E-3,5C000000,-0724,0832,12144,025.6,045.3,0.480,741.7,01.18,0.508
2015-05-08 01:36:00,1638E-3,5C000000,-0724,0832,12084,025.6,045.4,0.480,741.6,01.18,0.508
2015-05-08 01:37:00,1744E-3,5C000000,-0724,0832,12136,025.6,045.4,0.481,741.7,01.18,0.508
2015-05-08 01:38:00,1751E-3,5C000000,-0724,0833,12155,025.6,045.4,0.481,741.7,01.18,0.508
2015-05-08 01:39:00,1774E-3,5C000000,-0724,0833,12155,025.6,045.4,0.481,741.7,01.18,0.508
2015-05-08 01:40:00,1783E-3,5C000000,-0724,0832,12223,025.6,045.4,0.481,741.6,01.18,0.508
2015-05-08 01:41:00,1771E-3,5C000000,-0724,0832,12217,025.6,045.4,0.481,741.6,01.18,0.508
2015-05-08 01:42:00,1699E-3,5C000000,-0724,0832,12262,025.6,045.4,0.480,741.6,01.18,0.508
2015-05-08 01:43:00,1647E-3,5C000000,-0724,0832,12222,025.6,045.4,0.480,741.7,01.18,0.508
2015-05-08 01:44:00,1690E-3,5C000000,-0724,0833,12085,025.6,045.4,0.480,741.7,01.18,0.508
2015-05-08 01:45:00,1846E-3,5C000000,-0724,0833,12112,025.6,045.4,0.480,741.7,01.18,0.508
2015-05-08 01:46:00,1730E-3,5C000000,-0724,0832,12301,025.6,045.4,0.481,741.7,01.18,0.508
2015-05-08 01:47:00,1776E-3,5C000000,-0724,0833,12308,025.6,045.4,0.481,741.7,01.18,0.508
2015-05-08 01:48:00,1743E-3,5C000000,-0724,0833,12164,025.6,045.4,0.481,741.7,01.18,0.508
2015-05-08 01:49:00,1822E-3,5C000000,-0724,0832,12105,025.6,045.4,0.481,741.7,01.18,0.508
2015-05-08 01:50:00,1702E-3,5C000000,-0724,0833,12256,025.6,045.4,0.481,741.8,01.18,0.508
2015-05-08 01:51:00,1747E-3,5C000000,-0724,0832,12223,025.6,045.4,0.480,741.8,01.18,0.508
2015-05-08 01:52:00,1752E-3,5C000000,-0724,0832,12189,025.6,045.4,0.480,741.8,01.18,0.508
2015-05-08 01:53:00,1826E-3,5C000000,-0724,0833,12177,025.6,045.4,0.480,741.8,01.18,0.508
2015-05-08 01:54:00,1648E-3,5C000000,-0724,0833,12301,025.6,045.4,0.481,741.8,01.18,0.508
2015-05-08 01:55:00,1707E-3,5C000000,-0724,0832,12127,025.6,045.4,0.481,741.8,01.18,0.508
2015-05-08 01:56:00,1726E-3,5C000000,-0724,0832,12182,025.6,045.4,0.481,741.8,01.18,0.508
2015-05-08 01:57:00,1717E-3,5C000000,-0724,0833,12001,025.6,045.4,0.481,741.8,01.18,0.508
2015-05-08 01:58:00,1826E-3,5C000000,-0724,0832,12094,025.6,045.4,0.481,741.8,01.18,0.508
2015-05-08 01:59:00,1760E-3,5C000000,-0724,0833,12241,025.6,045.4,0.481,741.8,01.18,0.508
2015-05-08 02:00:00,1699E-3,5C000000,-0724,0833,12054,025.6,045.4,0.481,741.9,01.18,0.508
2015-05-08 02:01:00,1700E-3,5C000000,-0724,0833,12091,025.6,045.4,0.480,741.8,01.18,0.508
2015-05-08 02:02:00,1847E-3,5C000000,-0724,0832,12166,025.6,045.4,0.480,741.9,01.18,0.508
2015-05-08 02:03:00,1706E-3,5C000000,-0724,0833,12130,025.6,045.4,0.480,741.9,01.18,0.508
2015-05-08 02:04:00,1868E-3,5C000000,-0724,0833,12191,025.6,045.4,0.481,741.9,01.18,0.508
2015-05-08 02:05:00,1732E-3,5C000000,-0724,0832,12087,025.6,045.4,0.481,741.8,01.18,0.508
2015-05-08 02:06:00,1687E-3,5C000000,-0724,0832,12202,025.6,045.4,0.481,741.9,01.18,0.508
2015-05-08 02:07:00,1645E-3,5C000000,-0724,0833,12276,025.6,045.4,0.481,741.8,01.18,0.508
2015-05-08 02:08:00,1837E-3,5C000000,-0724,0833,12216,025.7,045.4,0.481,741.9,01.18,0.508
2015-05-08 02:09:00,1861E-3,5C000000,-0724,0832,12173,025.6,045.4,0.481,741.9,01.18,0.508
2015-05-08 02:10:00,1894E-3,5C000000,-0724,0833,12219,025.6,045.4,0.481,741.9,01.18,0.508
2015-05-08 02:11:00,1789E-3,5C000000,-0724,0833,12266,025.6,045.4,0.480,741.9,01.18,0.508
2015-05-08 02:12:00,1756E-3,5C000000,-0724,0833,12153,025.6,045.4,0.480,741.9,01.18,0.508
2015-05-08 02:13:00,1673E-3,5C000000,-0724,0833,12209,025.6,045.4,0.480,741.9,01.18,0.508
2015-05-08 02:14:00,1638E-3,5C000000,-0724,0832,12166,025.7,045.3,0.480,742.0,01.18,0.508
2015-05-08 02:15:00,1717E-3,5C000000,-0724,0832,12260,025.6,045.4,0.481,742.0,01.18,0.508
2015-05-08 02:16:00,1718E-3,5C000000,-0724,0832,12128,025.6,045.4,0.481,741.9,01.18,0.508
2015-05-08 02:17:00,1810E-3,5C000000,-0724,0832,12256,025.6,045.4,0.481,741.9,01.18,0.508
2015-05-08 02:18:00,1832E-3,5C000000,-0724,0833,12347,025.6,045.4,0.481,741.9,01.18,0.508
2015-05-08 02:19:00,1789E-3,5C000000,-0724,0833,12242,025.7,045.4,0.481,741.9,01.18,0.508
2015-05-08 02:20:00,1809E-3,5C000000,-0724,0833,12003,025.7,045.4,0.481,741.9,01.18,0.508
2015-05-08 02:21:00,1839E-3,5C000000,-0724,0832,12131,025.6,045.4,0.481,741.9,01.18,0.508
2015-05-08 02:22:00,1798E-3,5C000000,-0724,0832,12309,025.6,045.4,0.481,741.9,01.18,0.508
2015-05-08 02:23:00,1766E-3,5C000000,-0724,0832,12263,025.6,045.4,0.480,741.9,01.18,0.508
2015-05-08 02:24:00,1743E-3,5C000000,-0724,0832,12105,025.6,045.4,0.480,741.9,01.18,0.508
2015-05-08 02:25:00,1624E-3,5C000000,-0724,0833,12186,025.6,045.4,0.480,741.9,01.18,0.508
2015-05-08 02:26:00,1743E-3,5C000000,-0724,0833,12055,025.6,045.4,0.480,742.0,01.18,0.508
2015-05-08 02:27:00,1662E-3,5C000000,-0724,0833,12133,025.7,045.4,0.481,742.0,01.18,0.508
2015-05-08 02:28:00,1769E-3,5C000000,-0724,0832,12133,025.7,045.4,0.481,742.0,01.18,0.508
2015-05-08 02:29:00,1692E-3,5C000000,-0724,0832,12182,025.7,045.4,0.481,742.0,01.18,0.508
2015-05-08 02:30:00,1758E-3,5C000000,-0724,0833,12158,025.7,045.4,0.481,742.0,01.18,0.508
2015-05-08 02:31:00,1624E-3,5C000000,-0724,0834,12319,025.7,045.4,0.481,742.0,01.18,0.508
2015-05-08 02:32:00,1782E-3,5C000000,-0724,0833,12179,025.7,045.4,0.481,742.0,01.18,0.508
2015-05-08 02:33:00,1702E-3,5C000000,-0724,0833,12295,025.7,045.4,0.481,742.0,01.18,0.508
2015-05-08 02:34:00,1840E-3,5C000000,-0724,0832,12295,025.7,045.4,0.481,742.0,01.18,0.508
2015-05-08 02:35:00,1719E-3,5C000000,-0724,0833,12100,025.7,045.4,0.480,742.0,01.18,0.508
2015-05-08 02:36:00,1808E-3,5C000000,-0724,0833,12191,025.7,045.4,0.480,742.0,01.18,0.508
2015-05-08 02:37:00,1728E-3,5C000000,-0724,0834,12191,025.7,045.4,0.480,742.0,01.18,0.508
2015-05-08 02:38:00,1748E-3,5C000000,-0724,0833,12156,025.7,045.4,0.480,742.1,01.18,0.508
2015-05-08 02:39:00,1694E-3,5C000000,-0724,0833,12198,025.7,045.4,0.481,742.1,01.18,0.508
2015-05-08 02:40:00,1711E-3,5C000000,-0724,0833,12116,025.7,045.4,0.481,742.1,01.18,0.508
2015-05-08 02:41:00,1646E-3,5C000000,-0724,0833,12109,025.7,045.4,0.481,742.1,01.18,0.508
2015-05-08 02:42:00,1747E-3,5C000000,-0724,0833,12140,025.7,045.4,0.481,742.1,01.18,0.508
2015-05-08 02:43:00,1767E-3,5C000000,-0724,0831,12226,025.7,045.4,0.481,742.1,01.18,0.508
2015-05-08 02:44:00,1716E-3,5C000000,-0724,0832,12139,025.7,045.4,0.481,742.1,01.18,0.508
2015-05-08 02:45:00,1805E-3,5C000000,-0724,0833,12212,025.7,045.4,0.480,742.1,01.18,0.508
2015-05-08 02:46:00,1795E-3,5C000000,-0724,0833,12103,025.7,045.4,0.480,742.1,01.18,0.508
2015-05-08 02:47:00,1705E-3,5C000000,-0724,0833,12168,025.7,045.4,0.480,742.1,01.18,0.508
2015-05-08 02:48:00,1790E-3,5C000000,-0724,0833,12252,025.7,045.4,0.480,742.1,01.18,0.508
2015-05-08 02:49:00,1711E-3,5C000000,-0724,0833,12137,025.7,045.4,0.481,742.1,01.18,0.508
2015-05-08 02:50:00,1732E-3,5C000000,-0724,0832,12132,025.7,045.4,0.481,742.1,01.18,0.508
2015-05-08 02:51:00,1913E-3,5C000000,-0724,0832,12024,025.7,045.4,0.481,742.1,01.18,0.508
2015-05-08 02:52:00,1785E-3,5C000000,-0724,0833,12069,025.7,045.4,0.481,742.1,01.18,0.508
2015-05-08 02:53:00,1898E-3,5C000000,-0724,0833,12159,025.7,045.4,0.481,742.1,01.18,0.508
2015-05-08 02:54:00,1700E-3,5C000000,-0724,0833,12231,025.7,045.4,0.481,742.1,01.18,0.508
2015-05-08 02:55:00,1696E-3,5C000000,-0724,0833,12178,025.7,045.4,0.481,742.1,01.18,0.508
2015-05-08 02:56:00,1776E-3,5C000000,-0724,0833,12125,025.7,045.4,0.480,742.1,01.18,0.508
2015-05-08 02:57:00,1947E-3,5C000000,-0724,0832,12171,025.7,045.4,0.480,742.1,01.18,0.508
2015-05-08 02:58:00,1758E-3,5C000000,-0724,0832,12094,025.8,045.4,0.480,742.1,01.18,0.508
2015-05-08 02:59:00,1742E-3,5C000000,-0724,0832,12097,025.8,045.4,0.480,742.1,01.18,0.508
2015-05-08 03:00:00,1982E-3,5C000000,-0724,0833,12307,025.8,045.4,0.481,742.1,01.18,0.508
2015-05-08 03:01:00,1760E-3,5C000000,-0724,0833,12154,025.8,045.4,0.481,742.1,01.18,0.508
2015-05-08 03:02:00,1935E-3,5C000000,-0724,0833,12225,025.7,045.4,0.481,742.2,01.18,0.508
2015-05-08 03:03:00,1838E-3,5C000000,-0724,0832,12257,025.7,045.4,0.481,742.2,01.18,0.508
2015-05-08 03:04:00,1764E-3,5C000000,-0724,0833,12213,025.8,045.4,0.481,742.2,01.18,0.508
2015-05-08 03:05:00,1739E-3,5C000000,-0724,0833,12181,025.7,045.4,0.481,742.1,01.18,0.508
2015-05-08 03:06:00,1720E-3,5C000000,-0724,0833,12277,025.8,045.4,0.481,742.2,01.18,0.508
2015-05-08 03:07:00,1985E-3,5C000000,-0724,0833,12210,025.8,045.4,0.481,742.2,01.18,0.508
2015-05-08 03:08:00,2191E-3,5C000000,-0724,0833,12189,025.8,045.4,0.480,742.2,01.18,0.508
2015-05-08 03:09:00,2378E-3,5C000000,-0724,0833,12111,025.8,045.4,0.480,742.2,01.18,0.508
2015-05-08 03:10:00,2547E-3,5C000000,-0724,0832,12146,025.8,045.4,0.480,742.2,01.18,0.508
2015-05-08 03:11:00,2758E-3,5C000000,-0724,0832,12312,025.8,045.4,0.480,742.2,01.18,0.508
2015-05-08 03:12:00,2327E-3,5C000000,-0724,0833,12190,025.8,045.4,0.480,742.2,01.18,0.508
2015-05-08 03:13:00,2308E-3,5C000000,-0724,0832,12074,025.7,045.4,0.480,742.2,01.18,0.508
2015-05-08 03:14:00,2766E-3,5C000000,-0724,0833,12237,025.8,045.4,0.481,742.2,01.18,0.508
2015-05-08 03:15:00,2559E-3,5C000000,-0724,0833,12252,025.8,045.4,0.481,742.2,01.18,0.508
2015-05-08 03:16:00,2412E-3,5C000000,-0724,0833,12185,025.8,045.4,0.481,742.2,01.18,0.508
2015-05-08 03:17:00,2125E-3,5C000000,-0724,0832,12006,025.8,045.4,0.481,742.2,01.18,0.508
2015-05-08 03:18:00,1992E-3,5C000000,-0724,0832,12153,025.8,045.4,0.481,742.2,01.18,0.508
2015-05-08 03:19:00,1780E-3,5C000000,-0724,0832,12226,025.8,045.4,0.481,742.2,01.18,0.508
2015-05-08 03:20:00,1803E-3,5C000000,-0724,0833,12205,025.8,045.4,0.481,742.3,01.18,0.508
2015-05-08 03:21:00,2003E-3,5C000000,-0724,0833,12144,025.8,045.4,0.480,742.3,01.18,0.508
2015-05-08 03:22:00,2216E-3,5C000000,-0724,0832,12234,025.8,045.4,0.480,742.2,01.18,0.508
2015-05-08 03:23:00,1803E-3,5C000000,-0724,0832,12303,025.8,045.4,0.480,742.3,01.18,0.508
2015-05-08 03:24:00,1855E-3,5C000000,-0724,0833,12053,025.8,045.4,0.480,742.3,01.18,0.508
2015-05-08 03:25:00,1877E-3,5C000000,-0724,0833,12093,025.8,045.4,0.480,742.3,01.18,0.508
2015-05-08 03:26:00,2130E-3,5C000000,-0724,0832,12112,025.8,045.4,0.480,742.3,01.18,0.508
2015-05-08 03:27:00,2144E-3,5C000000,-0724,0832,12329,025.8,045.4,0.480,742.2,01.18,0.508
2015-05-08 03:28:00,2323E-3,5C000000,-0724,0833,12159,025.8,045.4,0.481,742.3,01.18,0.508
2015-05-08 03:29:00,2343E-3,5C000000,-0724,0833,12172,025.8,045.4,0.481,742.3,01.18,0.508
2015-05-08 03:30:00,2455E-3,5C000000,-0724,0833,12139,025.8,045.4,0.481,742.2,01.18,0.508
2015-05-08 03:31:00,2595E-3,5C000000,-0724,0832,12110,025.8,045.4,0.481,742.2,01.18,0.508
2015-05-08 03:32:00,2290E-3,5C000000,-0724,0832,12114,025.8,045.4,0.481,742.3,01.18,0.508
2015-05-08 03:33:00,1798E-3,5C000000,-0724,0833,12146,025.8,045.4,0.480,742.2,01.18,0.508
2015-05-08 03:34:00,1819E-3,5C000000,-0724,0832,12142,025.8,045.4,0.480,742.3,01.18,0.508
2015-05-08 03:35:00,1732E-3,5C000000,-0724,0833,12121,025.8,045.4,0.480,742.2,01.18,0.508
2015-05-08 03:36:00,1943E-3,5C000000,-0724,0833,12280,025.8,045.4,0.480,742.2,01.18,0.508
2015-05-08 03:37:00,1853E-3,5C000000,-0724,0832,12192,025.8,045.4,0.480,742.2,01.18,0.508
2015-05-08 03:38:00,1823E-3,5C000000,-0724,0833,12196,025.8,045.4,0.480,742.2,01.18,0.508
2015-05-08 03:39:00,1912E-3,5C000000,-0724,0832,12202,025.8,045.4,0.480,742.1,01.18,0.508
2015-05-08 03:40:00,1794E-3,5C000000,-0724,0833,12046,025.8,045.4,0.480,742.1,01.18,0.508
2015-05-08 03:41:00,1876E-3,5C000000,-0724,0833,12108,025.8,045.4,0.480,742.0,01.18,0.508
2015-05-08 03:42:00,1914E-3,5C000000,-0724,0832,12282,025.8,045.4,0.480,742.1,01.18,0.508
2015-05-08 03:43:00,1988E-3,5C000000,-0724,0833,12234,025.8,045.4,0.480,742.0,01.18,0.508
2015-05-08 03:44:00,1747E-3,5C000000,-0724,0833,12081,025.8,045.4,0.480,741.9,01.18,0.508
2015-05-08 03:45:00,1606E-3,5C000000,-0724,0832,12143,025.8,045.4,0.481,742.0,01.18,0.508
2015-05-08 03:46:00,1859E-3,5C000000,-0724,0832,12182,025.8,045.4,0.481,741.9,01.18,0.508
2015-05-08 03:47:00,1830E-3,5C000000,-0724,0832,12150,025.8,045.4,0.481,742.1,01.18,0.508
2015-05-08 03:48:00,1892E-3,5C000000,-0724,0832,12245,025.8,045.4,0.481,742.1,01.18,0.508
2015-05-08 03:49:00,2111E-3,5C000000,-0724,0832,12192,025.8,045.4,0.481,742.1,01.18,0.508
2015-05-08 03:50:00,1928E-3,5C000000,-0724,0833,12099,025.8,045.4,0.481,742.1,01.18,0.508
2015-05-08 03:51:00,1938E-3,5C000000,-0724,0832,12246,025.8,045.4,0.481,742.1,01.18,0.508
2015-05-08 03:52:00,1969E-3,5C000000,-0724,0831,12040,025.8,045.4,0.480,742.1,01.18,0.508
2015-05-08 03:53:00,1932E-3,5C000000,-0724,0832,12024,025.8,045.4,0.480,742.1,01.18,0.508
2015-05-08 03:54:00,1838E-3,5C000000,-0724,0832,12248,025.8,045.4,0.480,742.1,01.18,0.508
2015-05-08 03:55:00,1807E-3,5C000000,-0724,0832,12173,025.8,045.4,0.480,742.2,01.18,0.508
2015-05-08 03:56:00,1733E-3,5C000000,-0724,0832,12035,025.8,045.4,0.480,742.2,01.18,0.508
2015-05-08 03:57:00,1781E-3,5C000000,-0724,0832,12243,025.8,045.4,0.480,742.2,01.18,0.508
2015-05-08 03:58:00,2181E-3,5C000000,-0724,0833,12198,025.9,045.4,0.480,742.3,01.18,0.508
2015-05-08 03:59:00,2279E-3,5C000000,-0724,0832,12264,025.8,045.4,0.480,742.3,01.18,0.508
2015-05-08 04:00:00,2237E-3,5C000000,-0724,0833,12156,025.8,045.4,0.480,742.3,01.18,0.508
2015-05-08 04:01:00,2349E-3,5C000000,-0724,0833,12219,025.8,045.4,0.481,742.3,01.18,0.508
2015-05-08 04:02:00,1965E-3,5C000000,-0724,0833,12107,025.8,045.4,0.481,742.3,01.18,0.508
2015-05-08 04:03:00,1795E-3,5C000000,-0724,0832,12305,025.8,045.4,0.481,742.3,01.18,0.508
2015-05-08 04:04:00,1817E-3,5C000000,-0724,0833,12288,025.8,045.4,0.481,742.3,01.18,0.508
2015-05-08 04:05:00,1803E-3,5C000000,-0724,0833,12169,025.8,045.4,0.481,742.3,01.18,0.508
2015-05-08 04:06:00,1813E-3,5C000000,-0724,0832,12065,025.8,045.4,0.481,742.3,01.18,0.508
2015-05-08 04:07:00,1878E-3,5C000000,-0724,0832,12074,025.8,045.4,0.481,742.3,01.18,0.508
2015-05-08 04:08:00,1830E-3,5C000000,-0724,0832,12182,025.8,045.4,0.481,742.3,01.18,0.508
2015-05-08 04:09:00,2524E-3,5C000000,-0724,0832,12218,025.8,045.4,0.481,742.3,01.18,0.508
2015-05-08 04:10:00,2383E-3,5C000000,-0724,0833,12170,025.8,045.4,0.481,742.3,01.18,0.508
2015-05-08 04:11:00,2215E-3,5C000000,-0724,0833,12251,025.8,045.4,0.481,742.3,01.18,0.508
2015-05-08 04:12:00,2103E-3,5C000000,-0724,0832,12181,025.8,045.4,0.481,742.3,01.18,0.508
2015-05-08 04:13:00,1960E-3,5C000000,-0724,0832,12260,025.8,045.4,0.481,742.3,01.18,0.508
2015-05-08 04:14:00,1789E-3,5C000000,-0724,0832,12204,025.8,045.4,0.480,742.2,01.18,0.508
2015-05-08 04:15:00,1584E-3,5C000000,-0724,0833,12300,025.8,045.4,0.480,742.2,01.18,0.508
2015-05-08 04:16:00,1659E-3,5C000000,-0724,0832,12204,025.8,045.4,0.480,742.3,01.18,0.508
2015-05-08 04:17:00,1865E-3,5C000000,-0724,0833,12328,025.8,045.4,0.480,742.3,01.18,0.508
2015-05-08 04:18:00,1819E-3,5C000000,-0724,0832,12143,025.8,045.4,0.480,742.3,01.18,0.508
2015-05-08 04:19:00,1751E-3,5C000000,-0724,0831,12183,025.8,045.4,0.480,742.2,01.18,0.508
2015-05-08 04:20:00,1800E-3,5C000000,-0724,0833,12165,025.8,045.4,0.480,742.2,01.18,0.508